TIANWANG 1B (TW-1B)
1 40927U 15051C   19113.51588228  .00009071  00000-0  14684-3 0  9991
2 40927  97.1445 159.2642 0007459 219.1414 273.6507 15.53003875201291
TIANWANG 1A (TW-1A)
1 40928U 15051D   19113.38109200  .00002834  00000-0  71978-4 0  9996
2 40928  97.1508 145.9273 0009325 282.5211 202.8272 15.40430336200505
LAPAN A2
1 40931U 15052B   19113.08548099  .00000700  00000-0  84772-5 0  9998
2 40931   5.9967 100.2156 0012425  70.8701 289.2683 14.76604576192889
LQSAT
1 40958U 15057A   19113.11722873  .00000207  00000-0  39713-4 0  9996
2 40958  97.9017 183.8281 0019709  65.1793 295.1513 14.73074955190471
CHUBUSAT 2
1 41338U 16012B   19113.46674949  .00000306  00000-0  17074-4 0  9995
2 41338  31.0022 142.0786 0013830 266.3111  93.5943 15.00127771174468
CHUBUSAT 3
1 41339U 16012C   19113.37631652  .00000307  00000-0  17087-4 0  9995
2 41339  31.0094 140.8214 0013635 273.1673  86.7410 15.00305045174445
OUFTI-1
1 41458U 16025C   19112.43781559  .00002678  00000-0  13983-3 0  9992
2 41458  98.1008 196.3804 0167224 189.2196 170.5950 15.05604839163962
E-STAR-2
1 41459U 16025D   19113.43803027  .00002656  00000-0  13933-3 0  9990
2 41459  98.1023 197.1289 0168748 187.0156 172.8703 15.05266669164080
AAUSAT 4
1 41460U 16025E   19113.21707356  .00002166  00000-0  11245-3 0  9996
2 41460  98.0984 198.0017 0158961 180.7926 179.3085 15.07062392164160
NUSAT 1
1 41557U 16033B   19113.49694523  .00001303  00000-0  51726-4 0  9994
2 41557  97.4174 201.3314 0015208 132.3889 227.8640 15.27063109161517
BEESAT 4
1 41619U 16040W   19112.88151640 +.00001259 +00000-0 +56532-4 0  9991
2 41619 097.3727 176.1521 0010390 215.9501 144.1038 15.22961258145212
PRATHAM
1 41783U 16059A   19113.17435498  .00000055  00000-0  19976-4 0  9996
2 41783  98.0730 173.9876 0033217 199.5110 160.4823 14.62985207137284
ALSAT 1N
1 41789U 16059G   19113.41618567  .00000065  00000-0  21342-4 0  9990
2 41789  98.0743 176.0968 0027995 188.0852 171.9907 14.64231577137413
NAYIF 1
1 42017U 17008BX  19113.41534551  .00001400  00000-0  58343-4 0  9995
2 42017  97.4074 181.0808 0006620  23.4375 336.7163 15.25355187121343
LILACSAT-1
1 42725U 98067ME  19087.71781172  .15670676  12603-4  45746-3 0  9992
2 42725  51.6064 319.7683 0009359 299.6698  60.5570 16.44549673105565
MAX VALIER SAT
1 42778U 17036P   19112.85477338 +.00000918 +00000-0 +43263-4 0  9994
2 42778 097.3601 171.7580 0014031 068.0144 292.2581 15.21899887101590
